SCP
-0 -0 -0 -0 -0 -0 -0 -0 -0 -0 -0 -0 -0 -0 -0 -0 -0 -0 -0 -0 -0 -0 -0 0 0 0 0 0 0 -0 -0 0 0 0 0 0 0 0 0 0 0 0 0 0 0 0 0
-0 -0 -0 -0 -0 -0 -0 -0 -0 -0 -0 -0 -0 -0 -0 -0 -0 -0 -0 -0 -0 -0 0 0 0 0 0 0 0 0 0 0 0 0 0 0 0 0 0 0 0 0 0 0 0 0 0
-0 -0 -0 -0 -0 -0 -0 -0 -0 -0 -0 -0 -0 -0 -0 -0 -0 -0 -0 -0 -0 -0 0 0 0 0 0 0 0 0 0 0 0 0 0 0 0 0 0 0 0 0 0 0 0 0 0
-0 -0 -0 -0 -0 -0 -0 -0 -0 -0 -0 -0 -0 -0 -0 -0 -0 -0 -0 -0 -0 -0 -0 -0 0 0 0 -0 -0 0 0 0 0 0 0 0 0 0 0 0 0 0 0 0 0 0 0
0 0 0 0 0 0 0 0 0 -0 -0 -0 -0 -0 -0 -0 -0 -0 -0 -0 0 0 0 0 0 0 0 0 0 -0 0 0 0 0 0 0 0 0 0 0 0 0 0 0 0 0 0
0 0 0 0 0 0 0 0 0 0 0 -0 -0 -0 -0 -0 -0 -0 -0 -0 0 0 0 0 0 0 0 0 -0 -0 -0 0 0 0 0 0 0 0 0 0 0 0 0 0 0 0 0
0 0 0 0 0 0 0 0 0 0 0 0 0 -0 -0 -0 -0 -0 0 0 0 0 0 0 0 0 0 0 0 0 0 0 0 0 0 0 0 0 0 0 0 0 0 0 0 0 0
0 0 0 0 0 0 0 0 0 0 0 0 0 0 0 -0 -0 0 0 0 0 0 0 0 0 0 0 0 0 0 0 0 0 0 0 0 0 0 0 0 0 0 0 0 0 0 0
0 0 0 0 0 0 0 0 0 0 0 0 0 -0 0 -0 -0 0 0 0 0 0 0 0 0 0 0 0 0 -0 0 0 0 0 0 0 0 0 0 0 0 0 0 0 0 0 0
0 0 0 0 0 0 0 0 0 0 0 0 0 0 0 0 0 0 0 0 0 -0 0 0 0 0 0 0 0 0 0 0 0 0 0 0 0 0 0 0 0 0 0 0 0 0 0
0 0 0 0 0 0 0 0 0 0 0 0 0 0 0 0 0 0 0 0 0 0 0 0 0 0 0 0 0 0 0 0 0 0 0 0 0 0 0 0 0 0 0 0 0 0 0
0 0 0 0 0 0 0 0 0 0 0 0 0 0 0 -0 0 0 0 0 0 0 0 0 0 0 0 0 0 0 0 0 0 0 0 0 0 0 0 0 0 0 0 0 0 0 0
0 0 0 0 0 0 0 0 0 0 0 0 0 0 0 -0 0 0 0 0 0 0 0 0 0 0 0 0 0 0 0 0 0 0 0 0 0 0 0 0 0 0 0 0 0 0 0
0 0 0 0 0 0 0 0 0 0 -0 -0 0 0 0 -0 0 0 0 0 0 0 0 0 0 0 0 0 0 0 0 0 0 0 0 0 0 0 0 0 0 0 0 0 0 0 0
0 0 0 0 0 0 0 0 -0 0 -0 -0 -0 0 0 0 0 0 0 0 0 0 0 0 0 0 0 0 0 0 0 0 0 0 0 0 0 0 0 0 0 0 0 0 0 0 0
0 0 0 0 0 0 0 -0 -0 0 -0 -0 0 0 0 0 0 0 0 0 0 0 0 0 0 0 0 0 0 0 0 0 0 0 0 0 0 0 0 0 0 0 0 0 0 0 0
0 0 0 0 0 0 0 0 0 0 -0 0 0 0 0 -0 0 0 0 0 0 0 0 0 0 0 0 0 0 0 0 0 0 0 0 0 0 0 0 0 0 0 0 0 0 0 0
0 0 0 0 0 0 0 0 0 0 0 -0 0 0 0 0 0 0 0 0 0 0 0 0 0 -0 -0 0 0 0 0 0 0 0 0 0 0 0 0 0 0 0 0 0 0 0 0
0 0 0 0 0 0 0 0 0 0 0 0 0 0 0 0 0 0 0 0 0 0 0 0 0 0 0 0 0 0 0 0 0 0 0 0 0 0 0 0 0 0 0 0 0 0 0
0 0 0 0 0 0 0 0 0 0 0 0 0 0 0 0 0 0 0 0 0 0 0 0 0 0 0 0 0 0 0 0 0 0 0 0 0 0 0 0 0 0 0 0 0 0 0
0 0 0 0 0 0 0 0 0 0 0 0 0 0 0 0 0 0 0 0 0 0 0 0 0 0 0 0 0 0 0 0 0 0 0 0 0 0 0 0 0 0 0 0 0 0 0
0 0 0 0 0 0 0 0 0 0 0 0 0 0 0 0 0 0 0 0 0 0 0 0 0 0 0 0 0 0 0 0 0 0 0 0 0 0 0 0 0 0 0 0 0 0 0
0 0 0 0 0 0 0 0 0 0 0 0 0 0 0 0 0 0 0 0 0 0 0 0 0 0 0 0 0 0 0 0 0 0 0 0 0 0 0 0 0 0 0 0 0 0 0
0 0 0 0 0 0 0 0 0 0 0 0 0 0 0 0 0 0 0 0 0 0 0 0 0 0 0 0 0 0 0 0 0 0 0 0 0 0 0 0 0 0 0 0 0 0 0
0 0 0 0 0 0 0 0 0 0 0 0 0 0 0 0 0 0 0 0 0 0 0 0 0 0 0 0 0 0 0 0 0 0 0 0 0 0 0 0 0 0 0 0 0 0 0
0 0 0 0 0 0 0 0 0 0 0 0 0 0 0 0 0 0 0 0 0 0 0 0 0 0 0 0 0 0 0 0 0 0 0 0 0 0 0 0 0 0 0 0 0 0 0
0 0 0 0 0 0 0 0 0 0 0 0 0 0 0 0 0 0 0 0 0 0 0 0 0 0 0 0 0 0 0 0 0 0 0 0 0 0 0 0 0 0 0 0 0 0 0
0 0 0 0 0 0 0 0 0 0 0 0 0 0 0 0 0 0 0 0 0 0 0 0 0 0 0 0 0 0 0 0 0 0 0 0 0 0 0 0 0 0 0 0 0 0 0
0 0 0 0 0 0 0 0 0 0 0 0 0 0 0 0 0 0 0 0 0 0 0 0 0 0 0 0 0 0 0 0 0 0 0 0 0 0 0 0 0 0 0 0 0 0 0
Wind_Speed_500mb
39 40 41 43 44 45 46 48 49 50 50 51 51 50 49 50 47 39 25 17 14 9 7 9 7 3 0 1 4 4 16 8 7 8 14 17 21 7 5 2 4 6 6 10 11 29 29
38 39 41 42 43 45 46 48 49 50 51 51 50 49 48 47 47 39 26 18 14 10 8 8 5 1 3 2 8 11 15 7 7 11 6 13 10 9 8 3 6 1 5 4 14 27 30
35 38 40 42 44 45 47 49 50 52 52 52 51 49 48 47 45 42 26 17 14 11 9 7 3 4 8 6 11 15 9 3 4 9 5 5 7 9 6 3 9 4 8 9 3 18 8
36 38 40 43 45 48 50 51 52 53 54 53 52 50 47 46 45 43 26 17 12 9 9 3 2 6 8 10 16 14 10 9 13 14 10 4 6 7 2 2 9 8 10 6 7 14 24
36 39 41 43 45 48 51 54 56 57 57 56 53 51 48 44 42 41 21 18 18 10 8 7 6 6 7 14 18 12 12 3 9 6 9 8 6 3 4 8 9 12 6 5 10 18 12
39 41 44 46 49 51 53 55 58 60 61 60 56 51 45 42 38 32 22 21 15 6 4 1 7 5 7 2 11 18 15 11 4 3 4 4 4 6 7 8 8 8 3 3 6 2 5
42 44 45 46 48 50 53 56 58 60 61 61 58 54 47 36 33 25 20 9 10 3 9 14 25 25 19 1 12 16 16 13 10 3 3 6 9 6 10 11 6 7 6 1 5 1 7
40 41 44 46 48 51 53 54 55 58 58 59 57 54 47 37 29 16 16 10 18 20 24 32 34 38 40 25 7 17 16 12 6 3 5 10 5 11 9 7 6 5 7 0 6 8 8
41 41 44 47 49 50 50 51 54 56 54 59 57 56 49 33 29 5 14 7 21 22 10 28 28 32 43 36 18 27 13 15 6 5 4 9 6 6 8 9 12 4 10 6 6 8 9
40 40 41 43 46 48 50 53 55 55 55 59 56 57 59 42 15 7 3 13 17 10 8 13 7 10 27 22 10 38 23 12 3 10 12 6 8 7 5 7 8 6 5 4 4 6 5
40 40 42 44 46 48 49 50 49 53 57 60 60 59 62 51 44 20 11 9 5 3 8 6 3 9 24 35 14 18 27 22 13 9 9 10 2 4 5 7 9 9 7 5 4 7 6
43 43 45 47 48 47 48 51 53 56 59 62 62 62 78 56 38 17 9 1 7 11 12 10 8 7 9 7 5 11 12 14 9 7 5 8 2 6 11 6 4 14 11 14 9 6 2
46 46 45 45 46 47 48 50 52 54 58 63 64 69 52 36 15 11 10 12 9 8 11 8 1 5 5 8 4 6 10 8 11 8 5 4 4 5 5 9 6 12 12 6 7 7 10
44 43 43 45 46 47 49 52 53 55 59 64 65 65 30 39 15 22 15 9 8 9 10 11 9 4 15 9 10 6 10 7 5 9 6 9 9 11 7 11 15 6 14 10 10 6 8
45 43 43 44 46 49 53 56 59 59 59 64 63 51 37 37 10 23 19 6 16 12 6 8 13 1 3 1 2 6 14 11 15 16 14 10 8 2 6 6 12 7 5 8 14 6 4
46 46 46 46 48 50 53 56 59 60 58 60 61 40 43 32 2 33 7 7 7 6 5 8 6 7 7 6 8 10 13 10 11 24 10 14 3 1 5 11 14 7 13 6 5 4 7
47 48 47 48 48 48 50 49 51 54 53 53 46 15 27 11 12 1 6 9 7 5 14 6 1 6 6 6 7 6 12 11 12 6 11 11 9 7 2 8 16 4 3 11 9 9 10
48 48 47 45 45 44 45 43 44 48 46 42 23 7 16 7 4 4 3 4 13 9 6 3 6 12 11 9 8 8 15 13 16 22 17 9 11 8 12 7 2 6 11 12 10 9 4
48 48 44 41 40 39 40 39 37 41 40 42 36 13 15 10 5 3 10 6 4 8 7 7 5 4 4 6 7 14 12 6 20 18 20 16 1 6 12 11 4 6 8 9 10 7 13
47 45 42 39 38 36 36 35 32 32 28 28 13 7 8 17 13 4 5 5 9 16 5 8 6 5 8 8 13 12 7 4 5 8 14 18 7 15 18 14 9 9 9 10 10 8 9
38 39 35 32 33 35 31 30 26 26 19 15 6 3 2 4 8 9 4 5 4 11 10 14 3 6 4 6 12 3 8 5 4 8 7 9 11 7 4 9 9 8 9 12 10 8 9
27 26 26 24 25 26 25 25 23 18 11 8 6 3 2 1 6 6 6 5 5 8 3 8 6 22 11 3 9 8 13 9 9 1 6 3 7 7 6 6 9 6 12 14 12 9 10
25 21 19 18 19 20 20 17 21 10 6 5 4 3 4 4 4 3 3 5 5 10 12 18 6 9 10 13 11 4 2 22 23 8 8 12 13 7 7 9 7 9 16 11 6 4 8
23 17 17 14 13 14 13 12 17 9 2 2 3 3 3 5 1 4 4 10 7 5 7 18 29 8 13 16 11 11 23 30 24 1 7 5 12 6 8 8 8 8 5 10 16 5 2
19 19 18 14 12 12 9 13 15 17 6 5 4 4 3 2 4 9 2 5 18 19 10 12 14 14 15 9 7 10 12 15 14 11 14 5 6 6 10 8 7 5 7 12 10 3 3
16 17 18 14 12 12 12 13 12 7 9 6 2 11 5 2 8 7 4 6 5 6 11 9 17 27 6 6 6 6 5 1 7 16 13 12 6 9 6 11 15 12 9 18 15 3 15
14 13 16 17 13 11 12 12 9 3 2 8 2 8 12 9 14 13 7 4 5 2 4 8 22 13 4 4 5 6 6 3 7 7 1 6 7 7 7 5 10 9 11 16 11 12 42
12 12 15 14 11 10 11 10 9 8 7 6 7 7 11 12 30 27 13 14 10 2 2 12 12 6 7 2 6 7 9 10 7 9 8 3 2 3 5 7 10 14 14 14 11 12 50
15 14 10 10 11 11 11 11 10 7 10 11 3 6 9 16 19 16 19 30 42 50 25 10 3 6 8 2 3 2 6 6 8 6 7 7 11 5 10 8 11 13 5 18 35 57 44
Wind_Direction_500mb
15 14 13 12 9 8 6 5 4 3 3 2 1 2 3 4 4 358 353 351 347 338 331 343 337 330 150 344 50 191 155 125 86 64 48 55 49 70 82 84 67 141 269 206 130 169 163
9 9 7 6 5 3 1 360 358 357 356 356 355 355 356 357 359 356 347 342 344 333 321 337 339 262 176 329 109 146 147 125 51 30 49 53 46 44 95 87 103 253 79 127 146 133 143
5 4 2 0 359 358 357 355 353 351 350 349 349 349 349 350 352 353 339 334 332 331 327 312 287 242 240 210 171 162 163 125 318 330 10 57 20 12 347 20 354 74 93 25 218 165 151
359 358 356 355 354 352 351 350 349 347 345 344 344 343 344 345 346 350 334 328 330 334 342 343 265 248 239 197 194 210 214 253 266 264 287 312 350 313 229 325 30 71 58 97 253 156 169
352 351 350 349 348 347 346 345 345 344 342 340 339 339 340 342 343 349 340 328 314 309 302 296 276 229 242 209 226 205 215 219 136 222 258 264 301 89 91 81 24 11 163 161 302 203 146
347 345 344 343 342 343 343 342 342 341 339 336 334 332 335 340 341 349 347 331 339 298 298 295 250 273 225 288 207 208 207 220 230 126 216 193 100 71 44 79 190 202 144 230 230 315 177
340 340 340 340 340 340 341 341 341 341 340 336 332 328 329 337 337 345 358 3 342 308 282 249 275 267 275 318 195 209 202 181 201 130 83 23 61 229 221 195 149 146 118 312 280 199 141
337 338 337 336 335 335 335 337 340 341 342 342 341 333 325 328 333 336 360 87 38 319 297 291 266 245 246 250 293 209 221 203 136 163 107 26 226 223 198 138 156 134 116 3 293 355 141
334 335 334 334 334 335 335 337 340 342 344 346 348 344 331 322 325 302 11 96 347 328 261 295 252 237 226 228 226 227 197 191 148 135 169 163 236 121 148 122 100 58 133 158 183 349 45
325 326 328 332 335 335 333 332 334 339 339 342 345 346 340 330 315 313 117 353 340 339 34 281 253 242 192 187 223 224 235 187 91 167 151 212 291 142 129 152 128 154 188 120 96 80 213
325 326 327 329 331 335 336 335 335 337 339 337 339 344 336 331 305 298 289 326 349 15 349 258 239 171 174 166 156 192 202 195 161 192 102 246 125 124 142 199 141 204 91 63 71 90 73
318 319 323 327 330 331 334 335 336 337 338 335 336 342 331 324 315 285 235 196 140 43 250 325 142 158 127 204 161 128 151 157 112 106 21 216 302 168 197 84 92 143 79 47 49 77 26
315 315 318 320 323 324 325 327 331 334 334 332 334 339 335 344 313 222 180 143 57 150 316 315 6 153 192 165 186 137 150 139 153 104 244 336 285 312 140 103 52 75 62 346 352 8 222
310 312 312 315 319 323 323 325 327 330 332 330 334 344 347 346 304 218 190 60 142 222 254 307 349 165 186 153 211 147 119 185 200 106 124 151 308 181 184 176 181 152 146 152 205 209 261
307 309 311 312 315 321 323 325 327 328 332 331 334 347 2 345 260 200 168 121 195 207 279 4 336 145 252 76 210 141 193 218 195 172 162 147 267 252 193 139 129 177 152 160 103 16 40
301 305 309 311 312 316 318 322 327 328 333 334 337 342 1 351 317 167 95 225 215 211 8 7 342 32 2 16 10 161 191 224 219 193 163 204 106 270 145 108 42 141 150 78 21 149 261
295 299 303 306 309 312 313 319 323 326 331 336 338 331 7 49 78 179 143 237 266 156 57 70 35 311 286 305 205 221 220 260 219 155 125 138 119 273 125 196 168 99 124 57 116 131 169
295 296 300 303 307 310 314 321 327 328 333 339 340 329 349 213 55 40 124 313 337 329 23 257 170 221 225 203 264 251 218 219 183 150 165 187 136 167 195 316 98 143 173 144 130 222 178
289 291 295 300 303 307 312 318 325 329 342 344 327 293 9 155 120 354 315 301 312 357 352 8 317 48 301 249 269 217 235 294 174 157 167 183 246 76 357 353 335 185 175 124 109 82 188
288 288 292 295 298 302 308 311 319 323 335 335 317 338 5 65 47 87 14 350 331 354 146 2 265 26 354 277 213 247 245 317 186 140 138 132 123 158 190 201 148 160 168 146 132 129 173
286 286 286 289 295 296 302 301 309 313 324 322 288 273 41 350 353 346 285 338 357 355 360 349 308 54 326 286 323 291 330 301 26 149 98 127 158 149 194 172 134 149 168 169 179 172 155
301 300 292 284 289 294 301 310 306 301 314 278 289 333 347 233 306 315 344 60 31 336 316 325 45 328 300 210 150 292 357 355 276 270 118 39 166 143 150 169 136 203 240 207 204 202 241
312 303 308 298 294 294 302 325 316 303 320 248 249 258 305 343 21 18 284 38 36 357 266 238 34 334 286 252 229 254 357 311 263 279 216 142 136 110 220 152 107 311 229 199 142 104 139
329 313 312 313 303 295 282 320 326 347 352 306 226 265 171 271 162 204 350 329 278 256 249 286 299 210 330 322 310 294 319 351 336 292 145 165 111 101 140 114 220 246 349 143 120 106 205
319 329 308 303 315 306 288 306 327 329 327 298 265 210 203 239 266 294 330 281 308 297 243 269 306 325 316 305 51 8 350 358 327 356 336 188 127 108 145 184 295 134 186 151 135 189 250
310 322 334 320 297 305 301 300 314 333 337 322 297 183 213 359 248 246 357 280 267 300 321 278 294 321 287 86 91 178 212 325 308 311 337 0 23 116 189 164 202 226 179 158 109 293 200
307 320 315 321 320 308 294 298 330 285 27 338 306 205 203 245 271 266 216 242 262 268 257 316 341 337 24 95 121 155 208 230 222 237 102 337 335 161 167 161 283 240 146 129 107 236 169
283 303 313 316 312 315 315 312 305 275 259 320 309 280 209 243 268 259 246 234 228 295 112 323 352 357 346 146 148 181 198 209 203 222 175 184 45 330 10 87 253 184 128 160 194 144 162
264 285 306 330 345 344 327 316 319 320 278 261 278 258 263 261 264 261 262 255 254 255 271 263 260 334 257 269 261 221 174 154 193 238 116 198 187 175 198 225 293 222 218 195 158 151 155
Wind_Speed_850mb
39 40 41 43 44 45 46 48 49 50 50 51 51 50 49 50 47 39 25 17 14 9 7 9 7 3 0 1 4 4 16 8 7 8 14 17 21 7 5 2 4 6 6 10 11 29 29
38 39 41 42 43 45 46 48 49 50 51 51 50 49 48 47 47 39 26 18 14 10 8 8 5 1 3 2 8 11 15 7 7 11 6 13 10 9 8 3 6 1 5 4 14 27 30
35 38 40 42 44 45 47 49 50 52 52 52 51 49 48 47 45 42 26 17 14 11 9 7 3 4 8 6 11 15 9 3 4 9 5 5 7 9 6 3 9 4 8 9 3 18 8
36 38 40 43 45 48 50 51 52 53 54 53 52 50 47 46 45 43 26 17 12 9 9 3 2 6 8 10 16 14 10 9 13 14 10 4 6 7 2 2 9 8 10 6 7 14 24
36 39 41 43 45 48 51 54 56 57 57 56 53 51 48 44 42 41 21 18 18 10 8 7 6 6 7 14 18 12 12 3 9 6 9 8 6 3 4 8 9 12 6 5 10 18 12
39 41 44 46 49 51 53 55 58 60 61 60 56 51 45 42 38 32 22 21 15 6 4 1 7 5 7 2 11 18 15 11 4 3 4 4 4 6 7 8 8 8 3 3 6 2 5
42 44 45 46 48 50 53 56 58 60 61 61 58 54 47 36 33 25 20 9 10 3 9 14 25 25 19 1 12 16 16 13 10 3 3 6 9 6 10 11 6 7 6 1 5 1 7
40 41 44 46 48 51 53 54 55 58 58 59 57 54 47 37 29 16 16 10 18 20 24 32 34 38 40 25 7 17 16 12 6 3 5 10 5 11 9 7 6 5 7 0 6 8 8
41 41 44 47 49 50 50 51 54 56 54 59 57 56 49 33 29 5 14 7 21 22 10 28 28 32 43 36 18 27 13 15 6 5 4 9 6 6 8 9 12 4 10 6 6 8 9
40 40 41 43 46 48 50 53 55 55 55 59 56 57 59 42 15 7 3 13 17 10 8 13 7 10 27 22 10 38 23 12 3 10 12 6 8 7 5 7 8 6 5 4 4 6 5
40 40 42 44 46 48 49 50 49 53 57 60 60 59 62 51 44 20 11 9 5 3 8 6 3 9 24 35 14 18 27 22 13 9 9 10 2 4 5 7 9 9 7 5 4 7 6
43 43 45 47 48 47 48 51 53 56 59 62 62 62 78 56 38 17 9 1 7 11 12 10 8 7 9 7 5 11 12 14 9 7 5 8 2 6 11 6 4 14 11 14 9 6 2
46 46 45 45 46 47 48 50 52 54 58 63 64 69 52 36 15 11 10 12 9 8 11 8 1 5 5 8 4 6 10 8 11 8 5 4 4 5 5 9 6 12 12 6 7 7 10
44 43 43 45 46 47 49 52 53 55 59 64 65 65 30 39 15 22 15 9 8 9 10 11 9 4 15 9 10 6 10 7 5 9 6 9 9 11 7 11 15 6 14 10 10 6 8
45 43 43 44 46 49 53 56 59 59 59 64 63 51 37 37 10 23 19 6 16 12 6 8 13 1 3 1 2 6 14 11 15 16 14 10 8 2 6 6 12 7 5 8 14 6 4
46 46 46 46 48 50 53 56 59 60 58 60 61 40 43 32 2 33 7 7 7 6 5 8 6 7 7 6 8 10 13 10 11 24 10 14 3 1 5 11 14 7 13 6 5 4 7
47 48 47 48 48 48 50 49 51 54 53 53 46 15 27 11 12 1 6 9 7 5 14 6 1 6 6 6 7 6 12 11 12 6 11 11 9 7 2 8 16 4 3 11 9 9 10
48 48 47 45 45 44 45 43 44 48 46 42 23 7 16 7 4 4 3 4 13 9 6 3 6 12 11 9 8 8 15 13 16 22 17 9 11 8 12 7 2 6 11 12 10 9 4
48 48 44 41 40 39 40 39 37 41 40 42 36 13 15 10 5 3 10 6 4 8 7 7 5 4 4 6 7 14 12 6 20 18 20 16 1 6 12 11 4 6 8 9 10 7 13
47 45 42 39 38 36 36 35 32 32 28 28 13 7 8 17 13 4 5 5 9 16 5 8 6 5 8 8 13 12 7 4 5 8 14 18 7 15 18 14 9 9 9 10 10 8 9
38 39 35 32 33 35 31 30 26 26 19 15 6 3 2 4 8 9 4 5 4 11 10 14 3 6 4 6 12 3 8 5 4 8 7 9 11 7 4 9 9 8 9 12 10 8 9
27 26 26 24 25 26 25 25 23 18 11 8 6 3 2 1 6 6 6 5 5 8 3 8 6 22 11 3 9 8 13 9 9 1 6 3 7 7 6 6 9 6 12 14 12 9 10
25 21 19 18 19 20 20 17 21 10 6 5 4 3 4 4 4 3 3 5 5 10 12 18 6 9 10 13 11 4 2 22 23 8 8 12 13 7 7 9 7 9 16 11 6 4 8
23 17 17 14 13 14 13 12 17 9 2 2 3 3 3 5 1 4 4 10 7 5 7 18 29 8 13 16 11 11 23 30 24 1 7 5 12 6 8 8 8 8 5 10 16 5 2
19 19 18 14 12 12 9 13 15 17 6 5 4 4 3 2 4 9 2 5 18 19 10 12 14 14 15 9 7 10 12 15 14 11 14 5 6 6 10 8 7 5 7 12 10 3 3
16 17 18 14 12 12 12 13 12 7 9 6 2 11 5 2 8 7 4 6 5 6 11 9 17 27 6 6 6 6 5 1 7 16 13 12 6 9 6 11 15 12 9 18 15 3 15
14 13 16 17 13 11 12 12 9 3 2 8 2 8 12 9 14 13 7 4 5 2 4 8 22 13 4 4 5 6 6 3 7 7 1 6 7 7 7 5 10 9 11 16 11 12 42
12 12 15 14 11 10 11 10 9 8 7 6 7 7 11 12 30 27 13 14 10 2 2 12 12 6 7 2 6 7 9 10 7 9 8 3 2 3 5 7 10 14 14 14 11 12 50
15 14 10 10 11 11 11 11 10 7 10 11 3 6 9 16 19 16 19 30 42 50 25 10 3 6 8 2 3 2 6 6 8 6 7 7 11 5 10 8 11 13 5 18 35 57 44
Wind_Direction_850mb
15 14 13 12 9 8 6 5 4 3 3 2 1 2 3 4 4 358 353 351 347 338 331 343 337 330 150 344 50 191 155 125 86 64 48 55 49 70 82 84 67 141 269 206 130 169 163
9 9 7 6 5 3 1 360 358 357 356 356 355 355 356 357 359 356 347 342 344 333 321 337 339 262 176 329 109 146 147 125 51 30 49 53 46 44 95 87 103 253 79 127 146 133 143
5 4 2 0 359 358 357 355 353 351 350 349 349 349 349 350 352 353 339 334 332 331 327 312 287 242 240 210 171 162 163 125 318 330 10 57 20 12 347 20 354 74 93 25 218 165 151
359 358 356 355 354 352 351 350 349 347 345 344 344 343 344 345 346 350 334 328 330 334 342 343 265 248 239 197 194 210 214 253 266 264 287 312 350 313 229 325 30 71 58 97 253 156 169
352 351 350 349 348 347 346 345 345 344 342 340 339 339 340 342 343 349 340 328 314 309 302 296 276 229 242 209 226 205 215 219 136 222 258 264 301 89 91 81 24 11 163 161 302 203 146
347 345 344 343 342 343 343 342 342 341 339 336 334 332 335 340 341 349 347 331 339 298 298 295 250 273 225 288 207 208 207 220 230 126 216 193 100 71 44 79 190 202 144 230 230 315 177
340 340 340 340 340 340 341 341 341 341 340 336 332 328 329 337 337 345 358 3 342 308 282 249 275 267 275 318 195 209 202 181 201 130 83 23 61 229 221 195 149 146 118 312 280 199 141
337 338 337 336 335 335 335 337 340 341 342 342 341 333 325 328 333 336 360 87 38 319 297 291 266 245 246 250 293 209 221 203 136 163 107 26 226 223 198 138 156 134 116 3 293 355 141
334 335 334 334 334 335 335 337 340 342 344 346 348 344 331 322 325 302 11 96 347 328 261 295 252 237 226 228 226 227 197 191 148 135 169 163 236 121 148 122 100 58 133 158 183 349 45
325 326 328 332 335 335 333 332 334 339 339 342 345 346 340 330 315 313 117 353 340 339 34 281 253 242 192 187 223 224 235 187 91 167 151 212 291 142 129 152 128 154 188 120 96 80 213
325 326 327 329 331 335 336 335 335 337 339 337 339 344 336 331 305 298 289 326 349 15 349 258 239 171 174 166 156 192 202 195 161 192 102 246 125 124 142 199 141 204 91 63 71 90 73
318 319 323 327 330 331 334 335 336 337 338 335 336 342 331 324 315 285 235 196 140 43 250 325 142 158 127 204 161 128 151 157 112 106 21 216 302 168 197 84 92 143 79 47 49 77 26
315 315 318 320 323 324 325 327 331 334 334 332 334 339 335 344 313 222 180 143 57 150 316 315 6 153 192 165 186 137 150 139 153 104 244 336 285 312 140 103 52 75 62 346 352 8 222
310 312 312 315 319 323 323 325 327 330 332 330 334 344 347 346 304 218 190 60 142 222 254 307 349 165 186 153 211 147 119 185 200 106 124 151 308 181 184 176 181 152 146 152 205 209 261
307 309 311 312 315 321 323 325 327 328 332 331 334 347 2 345 260 200 168 121 195 207 279 4 336 145 252 76 210 141 193 218 195 172 162 147 267 252 193 139 129 177 152 160 103 16 40
301 305 309 311 312 316 318 322 327 328 333 334 337 342 1 351 317 167 95 225 215 211 8 7 342 32 2 16 10 161 191 224 219 193 163 204 106 270 145 108 42 141 150 78 21 149 261
295 299 303 306 309 312 313 319 323 326 331 336 338 331 7 49 78 179 143 237 266 156 57 70 35 311 286 305 205 221 220 260 219 155 125 138 119 273 125 196 168 99 124 57 116 131 169
295 296 300 303 307 310 314 321 327 328 333 339 340 329 349 213 55 40 124 313 337 329 23 257 170 221 225 203 264 251 218 219 183 150 165 187 136 167 195 316 98 143 173 144 130 222 178
289 291 295 300 303 307 312 318 325 329 342 344 327 293 9 155 120 354 315 301 312 357 352 8 317 48 301 249 269 217 235 294 174 157 167 183 246 76 357 353 335 185 175 124 109 82 188
288 288 292 295 298 302 308 311 319 323 335 335 317 338 5 65 47 87 14 350 331 354 146 2 265 26 354 277 213 247 245 317 186 140 138 132 123 158 190 201 148 160 168 146 132 129 173
286 286 286 289 295 296 302 301 309 313 324 322 288 273 41 350 353 346 285 338 357 355 360 349 308 54 326 286 323 291 330 301 26 149 98 127 158 149 194 172 134 149 168 169 179 172 155
301 300 292 284 289 294 301 310 306 301 314 278 289 333 347 233 306 315 344 60 31 336 316 325 45 328 300 210 150 292 357 355 276 270 118 39 166 143 150 169 136 203 240 207 204 202 241
312 303 308 298 294 294 302 325 316 303 320 248 249 258 305 343 21 18 284 38 36 357 266 238 34 334 286 252 229 254 357 311 263 279 216 142 136 110 220 152 107 311 229 199 142 104 139
329 313 312 313 303 295 282 320 326 347 352 306 226 265 171 271 162 204 350 329 278 256 249 286 299 210 330 322 310 294 319 351 336 292 145 165 111 101 140 114 220 246 349 143 120 106 205
319 329 308 303 315 306 288 306 327 329 327 298 265 210 203 239 266 294 330 281 308 297 243 269 306 325 316 305 51 8 350 358 327 356 336 188 127 108 145 184 295 134 186 151 135 189 250
310 322 334 320 297 305 301 300 314 333 337 322 297 183 213 359 248 246 357 280 267 300 321 278 294 321 287 86 91 178 212 325 308 311 337 0 23 116 189 164 202 226 179 158 109 293 200
307 320 315 321 320 308 294 298 330 285 27 338 306 205 203 245 271 266 216 242 262 268 257 316 341 337 24 95 121 155 208 230 222 237 102 337 335 161 167 161 283 240 146 129 107 236 169
283 303 313 316 312 315 315 312 305 275 259 320 309 280 209 243 268 259 246 234 228 295 112 323 352 357 346 146 148 181 198 209 203 222 175 184 45 330 10 87 253 184 128 160 194 144 162
264 285 306 330 345 344 327 316 319 320 278 261 278 258 263 261 264 261 262 255 254 255 271 263 260 334 257 269 261 221 174 154 193 238 116 198 187 175 198 225 293 222 218 195 158 151 155